Orbital Elements at Epoch 2459200.5 (2020-Dec-17.0) TDB
Reference: JPL 41 (heliocentric ecliptic J2000)
Element | Value | Uncertainty (1-sigma) | Units |
e | .1340057752655611 | 3.2022e-08 | |
a | 2.922247460926335 | 1.023e-08 | au |
q | 2.530649424407084 | 9.3306e-08 | au |
i | 10.87130282005378 | 4.0324e-06 | deg |
node | 85.77456290137027 | 1.7098e-05 | deg |
peri | 295.5852094998629 | 2.2596e-05 | deg |
M | 40.11875831183388 | 1.4219e-05 | deg |
tp | 2458997.161837789633 (2020-May-27.66183779) | 7.2078e-05 | TDB |
period | 1824.626221648036 5.00 | 9.5809e-06 2.623e-08 | d yr |
n | .1973006831365393 | 1.036e-09 | deg/d |
Q | 3.313845497445587 | 1.16e-08 | au |
|
| | Orbit Determination Parameters
Additional Information
|